User: anonymous   Login
Location: Caltech
(34.1382°N, 118.1253°W)
Time: 11:51:11
(UTC-07:00)
Language:

Cosmos 2237 Rocket - Orbit

View from above orbital plane
View from above orbital plane
View from above satellite
View from above satellite

Ground track
Ground track

The orbit data is extracted from the following two-line orbital elements,

1 22566U 93016B   15185.88363622 -.00000035  00000-0  65633-5 0  9995
2 22566 071.0073 124.1341 0009179 149.3190 210.8471 14.14901362150370
Epoch (UTC): 04 July 2015 21:12:26
Eccentricity: 0.0009179
inclination: 71.0073°
perigee height: 836 km
apogee height: 849 km
right ascension of ascending node: 124.1341°
argument of perigee: 149.3190°
revolutions per day: 14.14901362
mean anomaly at epoch: 210.8471°
orbit number at epoch: 15037

The dashed part of the orbit path shows where the satellite is in the earth's shadow,  

DLR